Location: Morlupo
(42.1333°N, 12.5000°E)
Time: 16:27:52
(UTC+00:00)

CZ-2C R/B - Pass Details

Date: 18 September 2020
Orbit: 391 x 588 km, 35.0° (Epoch: 26 October)

Event Time Altitude Azimuth Distance (km) Brightness Sun altitude
Rises 18:59:32 0° 250° (WSW) 2,433 5.4 -20.0°
Reaches altitude 10° 19:01:59 10° 236° (WSW) 1,527 4.0 -20.4°
Enters shadow 19:03:58 22° 205° (SSW) 987 2.6 -20.7°
